Location: Shenandoah County Park
(38.9356°N, 78.4524°W)
Time: 00:03:00
(UTC-05:00)

DUCHIFAT 1 - Visible Passes

Search period start: 27 February 2024 00:00
Search period end: 08 March 2024 00:00
Orbit: 545 x 566 km, 98.1° (Epoch: 26 February)

Date Brightness Start Highest point End Pass type
(mag) Time Alt. Az. Time Alt. Az. Time Alt. Az.
27 Feb ? 04:10:10 10° NNE 04:11:32 19° NE 04:11:32 19° NE visible
27 Feb ? 05:46:13 10° NNW 05:47:22 13° NW 05:47:22 13° NW visible
28 Feb ? 04:07:38 10° NNE 04:09:09 20° NE 04:09:09 20° NE visible
28 Feb ? 05:43:28 10° NNW 05:45:00 15° NW 05:45:00 15° NW visible
29 Feb ? 04:05:06 10° NNE 04:06:45 21° NE 04:06:45 21° NE visible
29 Feb ? 05:40:43 10° NNW 05:42:36 16° NW 05:42:36 16° NW visible
01 Mar ? 04:02:31 10° NE 04:04:19 22° NE 04:04:19 22° NE visible
01 Mar ? 05:37:57 10° NNW 05:40:10 17° WNW 05:40:10 17° WNW visible
02 Mar ? 03:59:55 10° NE 04:01:52 22° ENE 04:01:52 22° ENE visible
02 Mar ? 05:35:10 10° NNW 05:37:43 19° WNW 05:37:43 19° WNW visible
03 Mar ? 03:57:19 10° NE 03:59:23 22° ENE 03:59:23 22° ENE visible
03 Mar ? 05:32:22 10° NNW 05:35:13 20° WNW 05:35:13 20° WNW visible
04 Mar ? 03:54:40 10° NE 03:56:53 22° ENE 03:56:53 22° ENE visible
04 Mar ? 05:29:33 10° NNW 05:32:36 22° WNW 05:32:43 22° WNW visible
05 Mar ? 03:52:01 10° NE 03:54:20 21° ENE 03:54:20 21° ENE visible
05 Mar ? 05:26:42 10° NNW 05:29:53 24° WNW 05:30:10 23° WNW visible
06 Mar ? 03:49:21 10° NE 03:51:46 20° E 03:51:46 20° E visible
06 Mar ? 05:23:51 10° NNW 05:27:07 25° WNW 05:27:36 25° W visible
07 Mar ? 03:46:40 10° NE 03:49:10 19° E 03:49:10 19° E visible
07 Mar ? 05:20:58 10° NNW 05:24:21 27° WNW 05:25:01 26° W visible
